Regional Weather Roundup
Issued by NWS Memphis, TN

Home | Current Version | Previous Version | Text Only | Print | Product List | Glossary On
Versions: 1 2 3 4 5 6 7 8 9 10 11 12 13 14 15 16 17 18 19 20 21 22 23 24 25 26 27 28 29 30 31 32 33 34 35 36 37 38 39 40 41 42 43 44 45 46 47 48 49 50
000
ASUS44 KMEG 281710
RWRMEG
MEMPHIS CWA HOURLY WEATHER ROUNDUP
NATIONAL WEATHER SERVICE MEMPHIS TN
1200 PM CDT FRI AUG 28 2015

...WEST TENNESSEE...

CITY           SKY/WX    TMP DP  RH WIND       PRES   REMARKS
MEMPHIS INTL   MOSUNNY   86  62  44 VRB3      30.08F
NWS MEMPHIS      N/A     85 N/A N/A MISG        N/A
JACKSON        SUNNY     82  65  56 S3        30.10F
LEXINGTON      SUNNY     82  66  57 SW6       30.10F
DYERSBURG      SUNNY    N/A N/A N/A MISG        N/A
UNION CITY     SUNNY     82  63  51 E6        30.10F
PARIS          SUNNY     81  64  57 NE5       30.12F


...EASTERN ARKANSAS...

CITY           SKY/WX    TMP DP  RH WIND       PRES   REMARKS
JONESBORO      SUNNY     80  63  55 SE5       30.09F
WEST MEMPHIS   SUNNY     84  64  50 SE5       30.07F
BATESVILLE     SUNNY     81  59  47 E5        30.10F
NEWPORT        SUNNY     83  60  45 CALM      30.11F
WALNUT RIDGE   SUNNY     81  61  50 S6        30.10F
BLYTHEVILLE    SUNNY     84  64  50 E6        30.10F
SEARCY         SUNNY     82  61  48 S5        30.11F
STUTTGART      SUNNY     81  57  44 N5        30.09S
PINE BLUFF     SUNNY     80  58  46 VRB3      30.09S
MONTICELLO     SUNNY     83  60  45 E5        30.08S


...NORTH MISSISSIPPI...

CITY           SKY/WX    TMP DP  RH WIND       PRES   REMARKS
TUPELO         SUNNY     84  68  58 CALM      30.08F
OXFORD         SUNNY     82  66  57 E5        30.10S
OLIVE BRANCH   MOSUNNY   82  66  57 E6        30.08F
TUNICA         SUNNY     82  64  54 E3        30.08F
CLARKSDALE     SUNNY     82  66  57 E5        30.08F
CORINTH        MOSUNNY   84  68  58 VRB3      30.09F
GREENWOOD      MOSUNNY   85  63  47 CALM      30.06S
COLUMBUS       SUNNY     85  70  61 VRB3      30.07F HX  90
STARKVILLE     FAIR      84  68  58 S5        30.07F
GOLDEN TRIANGL MOSUNNY   84  66  54 S5        30.07F


...SOUTHEAST MISSOURI...

CITY           SKY/WX    TMP DP  RH WIND       PRES   REMARKS
WEST PLAINS    SUNNY     75  59  57 S9        30.13F
POPLAR BLUFF   MOSUNNY   79  62  56 VRB3      30.10F
CAPE GIRARDEAU MOSUNNY   80  60  50 MISG      30.11F


...NORTHWEST ALABAMA...

CITY           SKY/WX    TMP DP  RH WIND       PRES   REMARKS
MUSCLE SHOALS  MOSUNNY   85  67  54 S10       30.12F


...MIDDLE TENNESSEE...

CITY           SKY/WX    TMP DP  RH WIND       PRES   REMARKS
NASHVILLE      MOSUNNY   85  63  47 S9        30.13F
CLARKSVILLE    SUNNY     83  62  49 SE3       30.13F
COLUMBIA       SUNNY     84  68  58 SE6       30.11F


...WESTERN KENTUCKY...

CITY           SKY/WX    TMP DP  RH WIND       PRES   REMARKS
PADUCAH        SUNNY     81  59  47 VRB3      30.12S
FORT CAMPBELL  SUNNY     82  62  51 E6        30.12F


...CENTRAL ARKANSAS...

CITY           SKY/WX    TMP DP  RH WIND       PRES   REMARKS
LITTLE ROCK    MOSUNNY   82  57  42 CALM      30.09F


SKY/WX REPORTED AS FAIR MEANS FEW OR NO CLOUDS BELOW
12 THOUSAND FEET.



USA.gov is the U.S. government's official web portal to all federal, state and local government web resources and services.